Weather History for Meriden, CT

Change the Weather History Date:

Thursday, January 9, 2014

  Actual Average (KHVN) Record (KHVN)
Temperature  
Mean Temperature 21 °F -  
Max Temperature 32 °F 35 °F 60 °F (2008)
Min Temperature 10 °F 24 °F 3 °F (1970)
Degree Days  
Heating Degree Days 44    
Moisture  
Dew Point 7 °F    
Average Humidity 59    
Maximum Humidity 84    
Minimum Humidity 37    
Precipitation  
Precipitation 0.00 in - - ()
Sea Level Pressure  
Sea Level Pressure 30.60 in    
Wind  
Wind Speed 4 mph (WNW)    
Max Wind Speed 9 mph    
Max Gust Speed -    
Visibility 10 miles    
Events      
Averages and records for this station are not official NWS values.
T = Trace of Precipitation, MM = Missing Value Source: NWS Daily Summary

Daily Weather History Graph

Daily Weather History Graph

Search for Another Location

Airport:

Trip Planner

Search our weather history database for the weather conditions in past years. The results will help you decide how hot, cold, wet, or windy it might be!

Date:

Astronomy

Jan. 09, 2014 Rise Set
Actual Time 7:17 AM EST 4:39 PM EST
Civil Twilight 6:46 AM EST 5:10 PM EST
Nautical Twilight 6:11 AM EST 5:45 PM EST
Astronomical Twilight 5:38 AM EST 6:18 PM EST
Moon 12:06 PM EST (1/9) 1:20 AM EST (1/9)
Length of Visible Light 10h 24m
Length of Day
9h 22m
Waxing Gibbous, 66% of the Moon is Illuminated
Jan 9
Waxing Gibbous
Jan 15
Full
Jan 24
Last Quarter
Jan 30
New
Feb 6
First Quarter

Hourly Weather History & Observations

Time (EST) Temp. Windchill Dew Point Humidity Pressure Visibility Wind Dir Wind Speed Gust Speed Precip Events Conditions
12:53 AM 19.0 °F 8.2 °F 3.0 °F 50% 30.48 in 10.0 mi WNW 9.2 mph - N/A   Overcast
1:53 AM 18.0 °F - 1.9 °F 50% 30.49 in 10.0 mi Calm Calm - N/A   Clear
2:53 AM 19.0 °F 11.1 °F 1.9 °F 47% 30.50 in 10.0 mi West 5.8 mph - N/A   Mostly Cloudy
3:53 AM 18.0 °F 9.8 °F 3.0 °F 52% 30.51 in 10.0 mi WNW 5.8 mph - N/A   Overcast
4:53 AM 18.0 °F 12.7 °F 3.9 °F 54% 30.53 in 10.0 mi Variable 3.5 mph - N/A   Clear
5:53 AM 12.9 °F - 5.0 °F 71% 30.55 in 10.0 mi Calm Calm - N/A   Clear
6:53 AM 10.9 °F - 5.0 °F 77% 30.58 in 10.0 mi Calm Calm - N/A   Clear
7:53 AM 12.0 °F - 6.1 °F 77% 30.61 in 10.0 mi Calm Calm - N/A   Clear
8:53 AM 19.9 °F - 9.0 °F 62% 30.64 in 10.0 mi Calm Calm - N/A   Clear
9:53 AM 24.1 °F 17.0 °F 8.1 °F 51% 30.65 in 10.0 mi Variable 5.8 mph - N/A   Clear
10:53 AM 26.1 °F 19.4 °F 8.1 °F 47% 30.65 in 10.0 mi WNW 5.8 mph - N/A   Clear
11:53 AM 28.0 °F 19.3 °F 9.0 °F 45% 30.61 in 10.0 mi WNW 9.2 mph - N/A   Clear
12:53 PM 30.0 °F 25.2 °F 9.0 °F 41% 30.59 in 10.0 mi North 4.6 mph - N/A   Clear
1:53 PM 32.0 °F - 9.0 °F 38% 30.60 in 10.0 mi Calm Calm - N/A   Clear
2:53 PM 32.0 °F 27.5 °F 8.1 °F 37% 30.60 in 10.0 mi WNW 4.6 mph - N/A   Clear
3:53 PM 30.9 °F 26.2 °F 7.0 °F 37% 30.62 in 10.0 mi NNW 4.6 mph - N/A   Clear
4:53 PM 24.1 °F - 10.9 °F 57% 30.64 in 10.0 mi Calm Calm - N/A   Clear
6:53 PM 19.0 °F 13.9 °F 10.9 °F 71% 30.66 in 10.0 mi WNW 3.5 mph - N/A   Clear
7:53 PM 17.1 °F - 10.9 °F 77% 30.66 in 10.0 mi Calm Calm - N/A   Clear
8:53 PM 14.0 °F - 10.0 °F 84% 30.66 in 10.0 mi Calm Calm - N/A   Clear
9:53 PM 15.1 °F - 9.0 °F 77% 30.63 in 10.0 mi Calm Calm - N/A   Clear
10:53 PM 14.0 °F - 9.0 °F 80% 30.62 in 9.0 mi Calm Calm - N/A   Clear
11:53 PM 14.0 °F - 9.0 °F 80% 30.61 in 8.0 mi Calm Calm - N/A   Clear